Terug naar catalogus

COSMOS 2499 DEB

ActiefPO
NORAD 49943·DEBRIS·🇷🇺 Russia

Gelanceerd May 23, 2014 vanaf Plesetsk Cosmodrome

Loading…

Volgende Passages (komende 24 uur)

TLE

VersSource: Space-Track

Epoch: Sep 14, 2026, 02:32 UTC

1 49943U 14028AA  26257.10616860  .00005304  00000-0  13229-1 0  9994
2 49943  82.5075 178.5018 0333759  36.8524 325.5030 13.01569868229576

Volg COSMOS 2499 DEB in realtime met AllMySat

Download on the App Store